Time,TemperatureF,DewpointF,PressureIn,WindDirection,WindDirectionDegrees,WindSpeedMPH,WindSpeedGustMPH,Humidity,HourlyPrecipIn,Conditions,Clouds,dailyrainin,SoftwareType,DateUTC
2013-06-29 00:00:00,63.7,61.1,29.48,South,180,1.1,3.4,91,2.69,,,0.00,WUHU216HW,2013-06-29 04:00:00,
2013-06-29 00:01:00,63.7,61.1,29.48,ESE,113,1.1,3.4,91,2.69,,,0.22,WUHU216HW,2013-06-29 04:01:00,
2013-06-29 00:06:00,63.7,61.1,29.48,ENE,68,1.6,3.4,91,2.70,,,0.25,WUHU216HW,2013-06-29 04:06:00,
2013-06-29 00:11:00,63.7,61.1,29.48,SE,135,2.0,2.5,91,2.70,,,0.27,WUHU216HW,2013-06-29 04:11:00,
2013-06-29 00:16:00,63.7,61.1,29.48,ESE,113,2.9,2.9,91,2.70,,,0.27,WUHU216HW,2013-06-29 04:16:00,
2013-06-29 00:21:00,63.7,61.1,29.48,NW,315,2.2,2.9,91,2.71,,,0.29,WUHU216HW,2013-06-29 04:21:00,
2013-06-29 00:26:00,63.5,60.9,29.48,NW,315,0.0,2.9,91,2.70,,,0.29,WUHU216HW,2013-06-29 04:26:00,
2013-06-29 00:31:00,63.5,60.9,29.48,ESE,113,2.2,2.7,91,2.70,,,0.29,WUHU216HW,2013-06-29 04:31:00,
2013-06-29 00:36:00,63.7,61.1,29.48,SE,135,1.6,2.9,91,2.68,,,0.29,WUHU216HW,2013-06-29 04:36:00,
2013-06-29 00:41:00,63.7,61.1,29.48,SE,135,1.8,2.9,91,2.67,,,0.29,WUHU216HW,2013-06-29 04:41:00,
2013-06-29 00:46:00,63.7,61.1,29.48,ESE,113,1.8,2.5,91,2.67,,,0.29,WUHU216HW,2013-06-29 04:46:00,
2013-06-29 00:51:00,63.7,61.1,29.48,SSE,158,1.1,2.5,91,2.68,,,0.31,WUHU216HW,2013-06-29 04:51:00,
2013-06-29 00:56:00,63.9,61.3,29.48,NW,315,0.0,2.0,91,2.68,,,0.34,WUHU216HW,2013-06-29 04:56:00,
2013-06-29 01:01:00,63.9,61.3,29.48,South,180,0.0,1.6,91,2.69,,,0.69,WUHU216HW,2013-06-29 05:01:00,
2013-06-29 01:06:00,63.9,61.3,29.48,NW,315,1.1,1.8,91,2.70,,,0.73,WUHU216HW,2013-06-29 05:06:00,
2013-06-29 01:11:00,63.7,61.1,29.48,NNW,338,0.0,1.8,91,2.72,,,0.76,WUHU216HW,2013-06-29 05:11:00,
2013-06-29 01:16:00,63.7,61.1,29.48,NNE,23,0.0,1.1,91,2.71,,,0.77,WUHU216HW,2013-06-29 05:16:00,
2013-06-29 01:21:00,63.9,61.3,29.48,NNE,23,0.0,1.1,91,2.71,,,0.77,WUHU216HW,2013-06-29 05:21:00,
2013-06-29 01:26:00,63.9,61.3,29.47,NNE,23,0.0,0.0,91,2.71,,,0.77,WUHU216HW,2013-06-29 05:26:00,
2013-06-29 01:31:00,63.9,61.3,29.47,NNE,23,0.0,0.0,91,2.71,,,0.77,WUHU216HW,2013-06-29 05:31:00,
2013-06-29 01:36:00,64.1,61.5,29.47,NNW,338,0.0,0.0,91,2.72,,,0.78,WUHU216HW,2013-06-29 05:36:00,
2013-06-29 01:41:00,64.1,61.5,29.47,North,0,0.0,0.0,91,2.71,,,0.78,WUHU216HW,2013-06-29 05:41:00,
2013-06-29 01:46:00,64.1,61.5,29.47,ESE,113,0.0,0.0,91,2.71,,,0.78,WUHU216HW,2013-06-29 05:46:00,
2013-06-29 01:51:00,64.1,61.5,29.47,WSW,248,0.0,0.4,91,2.69,,,0.78,WUHU216HW,2013-06-29 05:51:00,
2013-06-29 01:56:00,64.3,61.7,29.47,WSW,248,0.0,0.4,91,2.66,,,0.78,WUHU216HW,2013-06-29 05:56:00,
2013-06-29 02:01:00,64.3,61.7,29.47,WSW,248,0.0,0.0,91,2.66,,,1.22,WUHU216HW,2013-06-29 06:01:00,
2013-06-29 02:06:00,64.3,61.7,29.47,WSW,248,0.0,0.0,91,2.63,,,1.22,WUHU216HW,2013-06-29 06:06:00,
2013-06-29 02:11:00,64.3,61.7,29.47,South,180,1.1,1.1,91,2.60,,,1.22,WUHU216HW,2013-06-29 06:11:00,
2013-06-29 02:16:00,64.3,61.7,29.47,South,180,0.0,1.3,91,2.60,,,1.22,WUHU216HW,2013-06-29 06:16:00,
2013-06-29 02:21:00,64.3,61.7,29.47,SSE,158,0.0,1.3,91,2.60,,,1.22,WUHU216HW,2013-06-29 06:21:00,
2013-06-29 02:26:00,64.3,61.7,29.47,SSE,158,0.0,0.0,91,2.60,,,1.22,WUHU216HW,2013-06-29 06:26:00,
2013-06-29 02:31:00,64.3,61.7,29.47,South,180,0.4,0.9,91,2.60,,,1.22,WUHU216HW,2013-06-29 06:31:00,
2013-06-29 02:36:00,64.4,61.8,29.47,SSE,158,0.4,1.1,91,2.59,,,1.22,WUHU216HW,2013-06-29 06:36:00,
2013-06-29 02:41:00,64.4,61.8,29.47,SSE,158,0.0,1.1,91,2.59,,,1.22,WUHU216HW,2013-06-29 06:41:00,
2013-06-29 02:46:00,64.4,61.8,29.47,SW,225,0.0,0.4,91,2.59,,,1.22,WUHU216HW,2013-06-29 06:46:00,
2013-06-29 02:51:00,64.4,61.8,29.47,ESE,113,0.2,1.3,91,2.59,,,1.22,WUHU216HW,2013-06-29 06:51:00,
2013-06-29 02:56:00,64.4,61.8,29.47,SSE,158,0.7,1.3,91,2.59,,,1.22,WUHU216HW,2013-06-29 06:56:00,
2013-06-29 03:01:00,64.4,61.8,29.47,SSW,203,0.4,1.3,91,2.59,,,1.66,WUHU216HW,2013-06-29 07:01:00,
2013-06-29 03:06:00,64.4,61.8,29.47,South,180,0.0,1.3,91,2.59,,,1.66,WUHU216HW,2013-06-29 07:06:00,
2013-06-29 03:11:00,64.4,61.8,29.47,SSW,203,0.9,1.6,91,2.59,,,1.66,WUHU216HW,2013-06-29 07:11:00,
2013-06-29 03:16:00,64.4,61.8,29.47,SE,135,0.4,1.6,91,2.59,,,1.66,WUHU216HW,2013-06-29 07:16:00,
2013-06-29 03:21:00,64.4,61.8,29.47,South,180,0.9,1.3,91,2.59,,,1.66,WUHU216HW,2013-06-29 07:21:00,
2013-06-29 03:26:00,64.4,61.8,29.47,SE,135,0.0,1.3,91,2.59,,,1.66,WUHU216HW,2013-06-29 07:26:00,
2013-06-29 03:31:00,64.4,61.8,29.47,SW,225,0.0,1.1,91,2.59,,,1.66,WUHU216HW,2013-06-29 07:31:00,
2013-06-29 03:36:00,64.4,61.8,29.47,SSW,203,1.1,1.1,91,2.59,,,1.66,WUHU216HW,2013-06-29 07:36:00,
2013-06-29 03:41:00,64.4,61.8,29.46,South,180,0.0,1.1,91,2.59,,,1.66,WUHU216HW,2013-06-29 07:41:00,
2013-06-29 03:46:00,64.4,61.8,29.46,SE,135,0.4,1.1,91,2.59,,,1.66,WUHU216HW,2013-06-29 07:46:00,
2013-06-29 03:51:00,64.4,61.8,29.46,SE,135,0.2,0.9,91,2.59,,,1.66,WUHU216HW,2013-06-29 07:51:00,
2013-06-29 03:56:00,64.6,62.0,29.46,SSW,203,0.4,0.9,91,2.59,,,1.66,WUHU216HW,2013-06-29 07:56:00,
2013-06-29 04:01:00,64.6,62.0,29.46,SE,135,0.0,0.4,91,2.59,,,2.09,WUHU216HW,2013-06-29 08:01:00,
2013-06-29 04:06:00,64.6,62.0,29.46,East,90,0.7,1.1,91,2.59,,,2.09,WUHU216HW,2013-06-29 08:06:00,
2013-06-29 04:11:00,64.6,62.0,29.46,ENE,68,1.6,1.8,91,2.59,,,2.09,WUHU216HW,2013-06-29 08:11:00,
2013-06-29 04:16:00,64.6,62.0,29.46,East,90,1.8,2.0,91,2.59,,,2.09,WUHU216HW,2013-06-29 08:16:00,
2013-06-29 04:21:00,64.4,61.6,29.46,East,90,1.3,2.2,90,2.59,,,2.09,WUHU216HW,2013-06-29 08:21:00,
2013-06-29 04:26:00,64.4,61.6,29.46,ESE,113,1.1,2.2,90,2.59,,,2.09,WUHU216HW,2013-06-29 08:26:00,
2013-06-29 04:31:00,64.4,61.8,29.46,ESE,113,2.5,2.5,91,2.59,,,2.09,WUHU216HW,2013-06-29 08:31:00,
2013-06-29 04:36:00,64.4,61.6,29.46,East,90,2.7,2.7,90,2.59,,,2.09,WUHU216HW,2013-06-29 08:36:00,
2013-06-29 04:41:00,64.3,61.4,29.46,East,90,1.8,2.7,90,2.60,,,2.10,WUHU216HW,2013-06-29 08:41:00,
2013-06-29 04:46:00,64.3,61.4,29.46,East,90,2.0,2.7,90,2.60,,,2.10,WUHU216HW,2013-06-29 08:46:00,
2013-06-29 04:51:00,64.1,61.5,29.46,East,90,2.2,2.7,91,2.60,,,2.10,WUHU216HW,2013-06-29 08:51:00,
2013-06-29 04:56:00,64.1,61.5,29.46,East,90,1.1,2.5,91,2.60,,,2.10,WUHU216HW,2013-06-29 08:56:00,
2013-06-29 05:01:00,64.1,61.5,29.46,East,90,2.5,2.7,91,2.60,,,2.55,WUHU216HW,2013-06-29 09:01:00,
2013-06-29 05:06:00,64.1,61.5,29.46,ENE,68,1.1,2.7,91,2.60,,,2.55,WUHU216HW,2013-06-29 09:06:00,
2013-06-29 05:11:00,63.9,61.0,29.46,ESE,113,1.3,2.7,90,2.60,,,2.55,WUHU216HW,2013-06-29 09:11:00,
2013-06-29 05:16:00,64.1,61.5,29.46,East,90,2.2,2.5,91,2.60,,,2.55,WUHU216HW,2013-06-29 09:16:00,
2013-06-29 05:21:00,64.1,61.5,29.46,ESE,113,1.6,2.5,91,2.60,,,2.55,WUHU216HW,2013-06-29 09:21:00,
2013-06-29 05:26:00,64.1,61.5,29.47,ENE,68,1.6,2.2,91,2.60,,,2.55,WUHU216HW,2013-06-29 09:26:00,
2013-06-29 05:31:00,63.9,61.3,29.47,ENE,68,1.8,2.9,91,2.61,,,2.56,WUHU216HW,2013-06-29 09:31:00,
2013-06-29 05:36:00,63.9,61.3,29.47,NNW,338,2.0,2.9,91,2.61,,,2.56,WUHU216HW,2013-06-29 09:36:00,
2013-06-29 05:41:00,63.7,61.1,29.47,NNW,338,2.5,4.0,91,2.60,,,2.56,WUHU216HW,2013-06-29 09:41:00,
2013-06-29 05:46:00,63.7,61.1,29.47,SE,135,1.6,4.0,91,2.60,,,2.56,WUHU216HW,2013-06-29 09:46:00,
2013-06-29 05:51:00,63.7,61.1,29.47,SSE,158,2.2,2.5,91,2.60,,,2.56,WUHU216HW,2013-06-29 09:51:00,
2013-06-29 05:56:00,63.5,60.9,29.47,SE,135,1.1,2.9,91,2.60,,,2.56,WUHU216HW,2013-06-29 09:56:00,
2013-06-29 06:01:00,63.7,61.1,29.47,NNW,338,1.8,2.9,91,2.60,,,3.02,WUHU216HW,2013-06-29 10:01:00,
2013-06-29 06:06:00,63.7,61.1,29.47,NE,45,0.0,3.4,91,2.61,,,3.03,WUHU216HW,2013-06-29 10:06:00,
2013-06-29 06:11:00,63.5,60.9,29.47,NE,45,0.0,3.4,91,2.61,,,3.03,WUHU216HW,2013-06-29 10:11:00,
2013-06-29 06:16:00,63.5,60.9,29.47,ENE,68,1.6,1.6,91,2.61,,,3.03,WUHU216HW,2013-06-29 10:16:00,
2013-06-29 06:21:00,63.7,61.1,29.47,NE,45,0.7,2.7,91,2.61,,,3.03,WUHU216HW,2013-06-29 10:21:00,
2013-06-29 06:26:00,63.7,61.1,29.47,NE,45,1.1,2.7,91,2.62,,,3.04,WUHU216HW,2013-06-29 10:26:00,
2013-06-29 06:31:00,63.7,61.1,29.47,NE,45,1.6,2.2,91,2.61,,,3.04,WUHU216HW,2013-06-29 10:31:00,
2013-06-29 06:36:00,63.7,61.1,29.47,ESE,113,1.8,2.2,91,2.61,,,3.04,WUHU216HW,2013-06-29 10:36:00,
2013-06-29 06:41:00,63.7,61.1,29.47,ESE,113,0.9,2.2,91,2.62,,,3.05,WUHU216HW,2013-06-29 10:41:00,
2013-06-29 06:46:00,63.7,61.1,29.47,ESE,113,1.8,2.2,91,2.62,,,3.05,WUHU216HW,2013-06-29 10:46:00,
2013-06-29 06:51:00,63.7,61.1,29.47,ESE,113,0.4,1.8,91,2.62,,,3.05,WUHU216HW,2013-06-29 10:51:00,
2013-06-29 06:56:00,63.7,61.1,29.47,East,90,1.1,1.8,91,2.62,,,3.05,WUHU216HW,2013-06-29 10:56:00,
2013-06-29 07:01:00,63.9,61.3,29.47,ESE,113,1.6,2.2,91,2.62,,,3.53,WUHU216HW,2013-06-29 11:01:00,
2013-06-29 07:06:00,64.1,61.5,29.47,East,90,1.8,2.2,91,2.62,,,3.55,WUHU216HW,2013-06-29 11:06:00,
2013-06-29 07:11:00,64.1,61.7,29.47,East,90,1.8,2.2,92,2.62,,,3.55,WUHU216HW,2013-06-29 11:11:00,
2013-06-29 07:16:00,64.1,61.7,29.47,ESE,113,1.8,2.2,92,2.62,,,3.55,WUHU216HW,2013-06-29 11:16:00,
2013-06-29 07:21:00,64.1,61.7,29.48,ENE,68,0.0,1.8,92,2.62,,,3.55,WUHU216HW,2013-06-29 11:21:00,
2013-06-29 07:26:00,64.1,61.7,29.48,ENE,68,0.7,1.8,92,2.61,,,3.55,WUHU216HW,2013-06-29 11:26:00,
2013-06-29 07:31:00,64.3,61.9,29.48,ENE,68,1.1,2.0,92,2.61,,,3.55,WUHU216HW,2013-06-29 11:31:00,
2013-06-29 07:36:00,64.3,61.9,29.48,NE,45,1.1,2.0,92,2.60,,,3.55,WUHU216HW,2013-06-29 11:36:00,
2013-06-29 07:41:00,64.3,61.9,29.48,NNW,338,1.1,2.9,92,2.60,,,3.55,WUHU216HW,2013-06-29 11:41:00,
2013-06-29 07:46:00,64.3,61.9,29.48,ENE,68,0.4,2.9,92,2.60,,,3.55,WUHU216HW,2013-06-29 11:46:00,
2013-06-29 07:51:00,64.3,61.9,29.48,NNE,23,1.1,2.2,92,2.60,,,3.55,WUHU216HW,2013-06-29 11:51:00,
2013-06-29 07:56:00,64.4,62.1,29.48,NNE,23,0.0,2.0,92,2.60,,,3.55,WUHU216HW,2013-06-29 11:56:00,
2013-06-29 08:01:00,64.3,61.9,29.48,ENE,68,1.3,1.8,92,0.02,,,3.56,WUHU216HW,2013-06-29 12:01:00,
2013-06-29 08:06:00,64.3,61.9,29.48,NE,45,0.0,2.0,92,0.01,,,3.56,WUHU216HW,2013-06-29 12:06:00,
2013-06-29 08:11:00,64.4,62.1,29.48,NE,45,0.0,2.0,92,0.01,,,3.56,WUHU216HW,2013-06-29 12:11:00,
2013-06-29 08:16:00,64.3,61.9,29.49,North,0,0.7,2.5,92,0.01,,,3.56,WUHU216HW,2013-06-29 12:16:00,
2013-06-29 08:21:00,64.3,61.9,29.49,West,270,0.9,2.5,92,0.01,,,3.56,WUHU216HW,2013-06-29 12:21:00,
2013-06-29 08:26:00,64.3,61.9,29.49,ESE,113,2.5,3.1,92,0.01,,,3.56,WUHU216HW,2013-06-29 12:26:00,
2013-06-29 08:31:00,64.3,61.9,29.49,NW,315,1.1,3.1,92,0.02,,,3.57,WUHU216HW,2013-06-29 12:31:00,
2013-06-29 08:36:00,64.1,61.7,29.49,East,90,1.1,3.4,92,0.02,,,3.57,WUHU216HW,2013-06-29 12:36:00,
2013-06-29 08:41:00,63.9,61.6,29.50,NW,315,0.9,3.4,92,0.02,,,3.57,WUHU216HW,2013-06-29 12:41:00,
2013-06-29 08:46:00,64.1,61.7,29.50,ENE,68,2.0,2.7,92,0.02,,,3.57,WUHU216HW,2013-06-29 12:46:00,
2013-06-29 08:51:00,64.3,61.9,29.50,NE,45,1.8,2.7,92,0.02,,,3.57,WUHU216HW,2013-06-29 12:51:00,
2013-06-29 08:56:00,64.3,61.9,29.50,NNW,338,0.4,3.4,92,0.01,,,3.57,WUHU216HW,2013-06-29 12:56:00,
2013-06-29 09:01:00,64.3,61.9,29.50,NNW,338,1.1,3.4,92,0.01,,,3.57,WUHU216HW,2013-06-29 13:01:00,
2013-06-29 09:06:00,64.3,61.9,29.50,NNW,338,2.0,2.5,92,0.01,,,3.57,WUHU216HW,2013-06-29 13:06:00,
2013-06-29 09:11:00,64.1,61.7,29.50,NW,315,0.4,2.5,92,0.01,,,3.57,WUHU216HW,2013-06-29 13:11:00,
2013-06-29 09:16:00,64.1,61.7,29.50,NNW,338,1.6,2.5,92,0.01,,,3.57,WUHU216HW,2013-06-29 13:16:00,
2013-06-29 09:21:00,64.1,61.7,29.51,NNW,338,1.3,2.5,92,0.01,,,3.57,WUHU216HW,2013-06-29 13:21:00,
2013-06-29 09:26:00,64.1,61.7,29.51,NW,315,1.3,4.0,92,0.01,,,3.57,WUHU216HW,2013-06-29 13:26:00,
2013-06-29 09:31:00,64.3,61.9,29.51,NE,45,0.9,4.7,92,0.00,,,3.57,WUHU216HW,2013-06-29 13:31:00,
2013-06-29 09:36:00,64.4,62.1,29.51,NNW,338,2.2,4.7,92,0.00,,,3.57,WUHU216HW,2013-06-29 13:36:00,
2013-06-29 09:41:00,64.4,62.1,29.51,North,0,1.6,2.7,92,0.00,,,3.57,WUHU216HW,2013-06-29 13:41:00,
2013-06-29 09:46:00,64.4,62.1,29.51,ENE,68,1.6,3.4,92,0.00,,,3.57,WUHU216HW,2013-06-29 13:46:00,
2013-06-29 09:51:00,64.8,62.5,29.51,NE,45,1.6,3.4,92,0.00,,,3.57,WUHU216HW,2013-06-29 13:51:00,
2013-06-29 09:56:00,65.0,62.7,29.51,NNE,23,1.8,1.8,92,0.00,,,3.57,WUHU216HW,2013-06-29 13:56:00,
2013-06-29 10:01:00,65.2,62.8,29.51,North,0,2.0,2.7,92,0.00,,,3.57,WUHU216HW,2013-06-29 14:01:00,
2013-06-29 10:06:00,65.2,62.5,29.52,NW,315,0.7,2.7,91,0.00,,,3.57,WUHU216HW,2013-06-29 14:06:00,
2013-06-29 10:11:00,65.2,62.5,29.52,NNW,338,0.9,3.1,91,0.01,,,3.58,WUHU216HW,2013-06-29 14:11:00,
2013-06-29 10:16:00,65.0,62.4,29.52,NNE,23,2.5,3.8,91,0.01,,,3.58,WUHU216HW,2013-06-29 14:16:00,
2013-06-29 10:21:00,64.8,61.9,29.52,NNW,338,1.1,3.8,90,0.01,,,3.58,WUHU216HW,2013-06-29 14:21:00,
2013-06-29 10:26:00,64.8,61.9,29.52,NW,315,0.7,2.5,90,0.01,,,3.58,WUHU216HW,2013-06-29 14:26:00,
2013-06-29 10:31:00,64.6,61.8,29.52,NNE,23,1.8,3.4,90,0.01,,,3.58,WUHU216HW,2013-06-29 14:31:00,
2013-06-29 10:36:00,64.6,62.0,29.52,NNW,338,1.1,3.4,91,0.01,,,3.58,WUHU216HW,2013-06-29 14:36:00,
2013-06-29 10:41:00,64.6,62.0,29.52,North,0,1.1,3.4,91,0.01,,,3.58,WUHU216HW,2013-06-29 14:41:00,
2013-06-29 10:46:00,64.6,62.0,29.52,NNW,338,1.6,3.4,91,0.01,,,3.58,WUHU216HW,2013-06-29 14:46:00,
2013-06-29 10:51:00,64.6,61.8,29.52,North,0,0.7,2.9,90,0.01,,,3.58,WUHU216HW,2013-06-29 14:51:00,
2013-06-29 10:56:00,64.4,61.6,29.53,NNW,338,1.1,2.5,90,0.01,,,3.58,WUHU216HW,2013-06-29 14:56:00,
2013-06-29 11:01:00,64.8,62.2,29.53,NNW,338,1.1,2.7,91,0.01,,,3.58,WUHU216HW,2013-06-29 15:01:00,
2013-06-29 11:06:00,65.2,62.5,29.53,NE,45,1.8,2.7,91,0.00,,,3.58,WUHU216HW,2013-06-29 15:06:00,
2013-06-29 11:13:00,66.1,63.4,29.53,NNE,23,1.8,2.9,91,0.00,,,3.58,WUHU216HW,2013-06-29 15:13:00,
2013-06-29 11:18:00,66.6,63.8,29.53,East,90,1.1,3.1,91,0.00,,,3.58,WUHU216HW,2013-06-29 15:18:00,
2013-06-29 11:23:00,67.3,64.5,29.53,NE,45,2.9,4.0,91,0.00,,,3.58,WUHU216HW,2013-06-29 15:23:00,
2013-06-29 11:28:00,67.9,64.8,29.53,NE,45,2.5,4.0,90,0.00,,,3.58,WUHU216HW,2013-06-29 15:28:00,
2013-06-29 11:33:00,68.4,65.0,29.53,NE,45,0.4,3.1,89,0.00,,,3.58,WUHU216HW,2013-06-29 15:33:00,
2013-06-29 11:38:00,68.8,65.1,29.54,ESE,113,0.4,2.5,88,0.00,,,3.58,WUHU216HW,2013-06-29 15:38:00,
2013-06-29 11:43:00,69.5,65.4,29.54,North,0,1.1,1.8,87,0.00,,,3.58,WUHU216HW,2013-06-29 15:43:00,
2013-06-29 11:48:00,69.8,65.8,29.54,NE,45,1.3,1.8,87,0.00,,,3.58,WUHU216HW,2013-06-29 15:48:00,
2013-06-29 11:53:00,70.2,65.8,29.54,NNW,338,1.1,2.0,86,0.00,,,3.58,WUHU216HW,2013-06-29 15:53:00,
2013-06-29 11:58:00,69.8,64.7,29.54,NNW,338,3.4,4.0,84,0.00,,,3.58,WUHU216HW,2013-06-29 15:58:00,
2013-06-29 16:00:00,77.4,65.2,29.57,NNW,338,5.1,5.1,66,0.00,,,3.58,WUHU216HW,2013-06-29 20:00:00,
2013-06-29 16:05:00,77.8,64.6,29.57,WNW,293,4.5,8.9,64,0.00,,,3.58,WUHU216HW,2013-06-29 20:05:00,
2013-06-29 16:10:00,77.2,65.0,29.57,NW,315,4.9,8.9,66,0.00,,,3.58,WUHU216HW,2013-06-29 20:10:00,
2013-06-29 16:15:00,77.0,64.4,29.57,NNW,338,5.4,8.5,65,0.00,,,3.58,WUHU216HW,2013-06-29 20:15:00,
2013-06-29 16:20:00,77.4,65.2,29.57,NNW,338,2.7,6.7,66,0.00,,,3.58,WUHU216HW,2013-06-29 20:20:00,
2013-06-29 17:00:00,76.1,63.9,29.58,NW,315,1.1,1.1,66,0.00,,,3.58,WUHU216HW,2013-06-29 21:00:00,
2013-06-29 17:05:00,76.7,64.9,29.58,NW,315,3.1,4.3,67,0.00,,,3.58,WUHU216HW,2013-06-29 21:05:00,
2013-06-29 17:10:00,77.4,64.7,29.58,WNW,293,9.2,9.2,65,0.00,,,3.58,WUHU216HW,2013-06-29 21:10:00,